Edinburg, TX

9:15 PM CDT on September 28, 2016 (GMT -0500)
Edinburg

Weather History for KEBG - May, 2013

Change the Weather History Date:

Friday, May 24, 2013

  Actual Average (KMFE) Record (KMFE)
Temperature  
Mean Temperature 84 °F 83 °F  
Max Temperature 97 °F 93 °F 99 °F (1943)
Min Temperature 71 °F 74 °F 60 °F (1967)
Degree Days  
Heating Degree Days 0 0  
Month to date heating degree days 0  
Since 1 July heating degree days 579  
Cooling Degree Days 18 18  
Month to date cooling degree days 390  
Year to date cooling degree days 1121  
Growing Degree Days 34 (Base 50)    
Moisture  
Dew Point 71 °F    
Average Humidity 70    
Maximum Humidity 86    
Minimum Humidity 33    
Precipitation  
Precipitation 0.14 in 0.07 in 3.01 in (1982)
Month to date precipitation 1.71  
Year to date precipitation 6.24  
Sea Level Pressure  
Sea Level Pressure 29.98 in    
Wind  
Wind Speed 11 mph (ESE)    
Max Wind Speed 22 mph    
Max Gust Speed 28 mph    
Visibility 6 miles    
Events Rain , Thunderstorm    
T = Trace of Precipitation, MM = Missing Value Source: NWS Daily Summary

Daily Weather History Graph

Daily Weather History Graph

Search for Another Location

Airport or City:

Trip Planner

Search our weather history database for the weather conditions in past years. The results will help you decide how hot, cold, wet, or windy it might be!

Date:

Astronomy

May. 24, 2013 Rise Set
Actual Time 6:41 AM CDT 8:17 PM CDT
Civil Twilight 6:16 AM CDT 8:42 PM CDT
Nautical Twilight 5:45 AM CDT 9:13 PM CDT
Astronomical Twilight 5:13 AM CDT 9:45 PM CDT
Moon 8:03 PM CDT (5/24) 6:10 AM CDT (5/24)
Length of Visible Light 14h 26m
Length of Day
13h 35m
Full, 100% of the Moon is Illuminated
May 24
Full
May 24
Full
May 31
Last Quarter
Jun 8
New
Jun 16
First Quarter

Hourly Weather History & Observations

Time (CDT) Temp. Heat Index Dew Point Humidity Pressure Visibility Wind Dir Wind Speed Gust Speed Precip Events Conditions
12:15 AM 80.6 °F 85.4 °F 73.6 °F 79% 29.97 in 7.0 mi ESE 9.2 mph - N/A   Scattered Clouds
12:35 AM 80.6 °F 85.4 °F 73.6 °F 79% 29.96 in 7.0 mi ESE 10.4 mph - N/A   Scattered Clouds
12:55 AM 80.6 °F 85.4 °F 73.6 °F 79% 29.96 in 7.0 mi ESE 9.2 mph - N/A   Mostly Cloudy
1:15 AM 80.1 °F 84.5 °F 73.8 °F 81% 29.96 in 7.0 mi ESE 9.2 mph - N/A   Scattered Clouds
1:35 AM 79.9 °F - 73.8 °F 81% 29.96 in 5.0 mi ESE 10.4 mph - N/A   Haze
1:55 AM 79.7 °F - 73.9 °F 82% 29.94 in 5.0 mi ESE 10.4 mph - N/A   Haze
2:15 AM 79.2 °F - 74.1 °F 84% 29.93 in 5.0 mi ESE 9.2 mph - N/A   Haze
2:35 AM 79.3 °F - 74.3 °F 84% 29.93 in 5.0 mi ESE 9.2 mph - N/A   Haze
2:55 AM 79.7 °F - 74.5 °F 84% 29.92 in 7.0 mi ESE 8.1 mph - N/A   Overcast
3:15 AM 79.7 °F - 74.5 °F 84% 29.93 in 5.0 mi ESE 9.2 mph - N/A   Haze
3:35 AM 80.1 °F 84.8 °F 74.7 °F 83% 29.93 in 5.0 mi ESE 8.1 mph - N/A   Haze
3:55 AM 80.1 °F 84.8 °F 74.5 °F 83% 29.92 in 5.0 mi ESE 9.2 mph - N/A   Haze
4:15 AM 80.1 °F 84.6 °F 74.3 °F 82% 29.92 in 5.0 mi ESE 6.9 mph - N/A   Haze
4:35 AM 80.2 °F 85.0 °F 74.3 °F 82% 29.93 in 5.0 mi East 9.2 mph - N/A   Haze
4:55 AM 80.2 °F 85.0 °F 74.3 °F 82% 29.93 in 5.0 mi ESE 9.2 mph - N/A   Haze
5:15 AM 80.4 °F 85.5 °F 74.3 °F 82% 29.94 in 5.0 mi ESE 9.2 mph - N/A   Haze
5:35 AM 80.2 °F 85.0 °F 74.3 °F 82% 29.95 in 5.0 mi ESE 9.2 mph - N/A   Haze
5:55 AM 79.9 °F - 74.3 °F 83% 29.95 in 5.0 mi ESE 9.2 mph - N/A   Haze
6:15 AM 79.9 °F - 74.5 °F 83% 29.96 in 5.0 mi East 6.9 mph - N/A   Haze
6:35 AM 80.2 °F 85.2 °F 74.7 °F 83% 29.97 in 5.0 mi East 5.8 mph - N/A   Haze
6:55 AM 80.6 °F 86.0 °F 74.8 °F 83% 29.97 in 4.0 mi ESE 5.8 mph - N/A   Haze
7:15 AM 80.6 °F 86.2 °F 75.2 °F 84% 29.98 in 4.0 mi ESE 8.1 mph - N/A   Haze
7:35 AM 81.5 °F 87.8 °F 75.2 °F 81% 29.99 in 5.0 mi ESE 11.5 mph - N/A   Haze
7:55 AM 81.9 °F 88.2 °F 74.7 °F 79% 29.99 in 4.0 mi ESE 11.5 mph - N/A   Haze
8:15 AM 82.4 °F 89.0 °F 74.7 °F 77% 29.99 in 5.0 mi SE 13.8 mph - 0.09 in Rain Light Rain
8:35 AM 82.6 °F 89.1 °F 74.5 °F 76% 30.01 in 4.0 mi ESE 13.8 mph - 0.09 in   Haze
9:15 AM 84.0 °F 91.2 °F 73.9 °F 72% 30.04 in 5.0 mi ESE 15.0 mph - N/A   Haze
9:35 AM 84.4 °F 90.6 °F 72.7 °F 68% 30.04 in 5.0 mi SE 12.7 mph 19.6 mph N/A   Haze
9:55 AM 86.5 °F 93.8 °F 73.0 °F 64% 30.04 in 5.0 mi SE 18.4 mph 23.0 mph N/A   Haze
10:15 AM 87.4 °F 94.4 °F 72.3 °F 61% 30.04 in 5.0 mi ESE 15.0 mph - N/A   Haze
10:35 AM 88.3 °F 95.0 °F 72.0 °F 58% 30.03 in 5.0 mi SE 17.3 mph 24.2 mph N/A   Haze
10:55 AM 89.1 °F 95.5 °F 71.6 °F 56% 30.03 in 5.0 mi SE 16.1 mph 21.9 mph N/A   Haze
11:15 AM 90.5 °F 96.5 °F 70.9 °F 52% 30.03 in 5.0 mi SE 12.7 mph 21.9 mph N/A   Haze
11:35 AM 89.6 °F 95.7 °F 70.9 °F 54% 30.03 in 5.0 mi SSE 15.0 mph 23.0 mph N/A   Haze
11:55 AM 91.0 °F 97.1 °F 70.5 °F 51% 30.03 in 5.0 mi SE 13.8 mph 20.7 mph N/A   Haze
12:15 PM 91.6 °F 97.7 °F 70.3 °F 50% 30.03 in 5.0 mi SE 12.7 mph 19.6 mph N/A   Haze
12:35 PM 92.1 °F 98.3 °F 70.3 °F 49% 30.02 in 5.0 mi SE 13.8 mph - N/A   Haze
12:55 PM 91.8 °F 97.5 °F 70.3 °F 49% 30.02 in 5.0 mi SSE 13.8 mph - N/A   Haze
1:15 PM 92.1 °F 98.3 °F 70.3 °F 49% 30.00 in 7.0 mi SSE 13.8 mph 21.9 mph N/A   Mostly Cloudy
1:35 PM 92.5 °F 97.9 °F 69.4 °F 47% 29.99 in 7.0 mi SSE 16.1 mph 21.9 mph N/A   Mostly Cloudy
1:55 PM 93.7 °F 99.3 °F 69.4 °F 45% 29.98 in 5.0 mi SSE 16.1 mph 21.9 mph N/A   Haze
2:15 PM 93.4 °F 98.1 °F 68.4 °F 44% 29.97 in 7.0 mi SSE 16.1 mph 24.2 mph N/A   Scattered Clouds
2:35 PM 94.1 °F 97.9 °F 67.3 °F 41% 29.96 in 7.0 mi SE 20.7 mph 24.2 mph N/A   Mostly Cloudy
2:55 PM 95.0 °F 97.4 °F 65.3 °F 37% 29.97 in 7.0 mi SSE 18.4 mph 24.2 mph N/A   Mostly Cloudy
3:15 PM 94.8 °F 96.7 °F 64.4 °F 36% 29.97 in 7.0 mi SSE 15.0 mph 21.9 mph N/A   Scattered Clouds
3:35 PM 96.6 °F 98.2 °F 63.5 °F 33% 29.96 in 7.0 mi SSE 12.7 mph 21.9 mph N/A   Mostly Cloudy
3:55 PM 94.5 °F 97.0 °F 65.5 °F 38% 29.95 in 7.0 mi SE 15.0 mph 20.7 mph N/A   Mostly Cloudy
4:15 PM 93.2 °F 96.2 °F 66.4 °F 41% 29.95 in 7.0 mi SE 11.5 mph 17.3 mph N/A   Mostly Cloudy
4:35 PM 92.3 °F 95.1 °F 66.0 °F 42% 29.97 in 7.0 mi SSE 10.4 mph 19.6 mph N/A   Mostly Cloudy
4:55 PM 91.6 °F 94.3 °F 66.0 °F 43% 29.97 in 7.0 mi SE 11.5 mph 16.1 mph N/A   Mostly Cloudy
5:15 PM 90.9 °F 93.5 °F 66.4 °F 44% 29.98 in 7.0 mi SSE 9.2 mph - N/A   Scattered Clouds
5:35 PM 90.0 °F 92.0 °F 65.7 °F 44% 30.00 in 7.0 mi NW 21.9 mph 26.5 mph N/A   Scattered Clouds
5:55 PM 80.2 °F 81.5 °F 62.6 °F 55% 30.02 in 7.0 mi NW 21.9 mph 27.6 mph N/A Thunderstorm Thunderstorm
6:15 PM 75.0 °F - 67.1 °F 76% 30.04 in 7.0 mi North 15.0 mph 21.9 mph N/A Rain , Thunderstorm Light Thunderstorms and Rain
6:35 PM 71.8 °F - 67.3 °F 86% 30.05 in 10.0 mi North 11.5 mph - 0.01 in Rain Light Rain
6:55 PM 73.0 °F - 68.7 °F 86% 30.04 in 10.0 mi North 13.8 mph - 0.01 in Rain Light Rain
7:15 PM 73.9 °F - 68.9 °F 84% 30.03 in 7.0 mi NNE 17.3 mph 21.9 mph 0.02 in Rain , Thunderstorm Light Thunderstorms and Rain
7:35 PM 73.6 °F - 68.9 °F 85% 30.02 in 10.0 mi NE 13.8 mph 23.0 mph 0.03 in Rain Light Rain
7:55 PM 73.6 °F - 68.5 °F 84% 29.99 in 7.0 mi East 12.7 mph - 0.04 in   Scattered Clouds
8:15 PM 73.6 °F - 68.5 °F 84% 29.97 in 7.0 mi ESE 17.3 mph - N/A   Clear
8:35 PM 73.4 °F - 68.7 °F 85% 29.97 in 7.0 mi ESE 12.7 mph - N/A   Clear
8:55 PM 74.1 °F - 69.1 °F 84% 29.92 in 10.0 mi ESE 18.4 mph 25.3 mph N/A   Scattered Clouds
9:15 PM 74.8 °F - 68.2 °F 80% 29.96 in 7.0 mi NE 3.5 mph 10.4 mph N/A   Clear
9:35 PM 74.3 °F - 68.7 °F 83% 29.98 in 7.0 mi East 6.9 mph - N/A   Clear
9:55 PM 74.5 °F - 68.9 °F 83% 29.98 in 10.0 mi ESE 9.2 mph - N/A   Clear
10:15 PM 74.5 °F - 69.1 °F 83% 30.01 in 7.0 mi Calm Calm - N/A   Clear
10:35 PM 74.5 °F - 69.3 °F 84% 30.01 in 10.0 mi SE 4.6 mph - N/A   Clear
10:55 PM 74.7 °F - 69.8 °F 85% 30.02 in 7.0 mi Calm Calm - N/A   Scattered Clouds
11:15 PM 75.4 °F - 70.2 °F 84% 30.03 in 7.0 mi Calm Calm - N/A   Overcast
11:35 PM 75.6 °F - 70.2 °F 83% 30.03 in 7.0 mi East 3.5 mph - N/A   Scattered Clouds
11:55 PM 75.7 °F - 71.1 °F 85% 30.05 in 7.0 mi Calm Calm - N/A   Mostly Cloudy